Tracking 22081 objects as of 4-Dec-2020
HD Live streaming from Space Station
objects crossing your sky now

ZHEDA PIXING 3A

Track ZHEDA PIXING 3A now!
10-day predictions


NORAD ID: 45795
Int'l Code: 2020-039B
Perigee: 490.1 km
Apogee: 510.7 km
Inclination: 97.3 °
Period: 94.5 minutes
Semi major axis: 6871 km
RCS: Unknown
Launch date: June 17, 2020
Source: People's Republic of China (PRC)
Launch site: Jiuquan Satellite Launch Center, China (JSC)
aabbcc
Your satellite tracking list
Your tracking list is empty




NASA's NSSDC Master Catalog

Two Line Element Set (TLE):
1 45795U 20039B   20339.11168865  .00002288  00000-0  96655-4 0  9992
2 45795  97.3403  96.8736 0014985  37.5471 135.1282 15.24164614 25846
Source of the keplerian elements: AFSPC